This is the latest recevied weather packets stored in our database for station/object KD7CTY. If no packets are shown the sender has not sent any weather packets the latest 10 day(s).
| Time | Temp. | Humidity | Pressure | Rain* | Wind** | Luminosity | Snow |
|---|---|---|---|---|---|---|---|
| 1777929023 | 23.89° C | 54% | 1010 hPa | 0 mm | - | 691 W/m² | - |
| 1777928720 | 23.89° C | 55% | 1010 hPa | 0 mm | - | 709 W/m² | - |
| 1777928416 | 22.78° C | 58% | 1010.1 hPa | 0 mm | - | 663 W/m² | - |
| 1777928115 | 23.89° C | 56% | 1010.1 hPa | 0 mm | - | 609 W/m² | - |
| 1777927812 | 23.33° C | 54% | 1010.1 hPa | 0 mm | - | 658 W/m² | - |
| 1777927510 | 23.33° C | 56% | 1010.2 hPa | 0 mm | - | 649 W/m² | - |
| 1777927209 | 22.78° C | 54% | 1010.2 hPa | 0 mm | - | 715 W/m² | - |
| 1777926907 | 22.78° C | 57% | 1010.3 hPa | 0 mm | - | 743 W/m² | - |
| 1777926603 | 22.78° C | 56% | 1010 hPa | 0 mm | - | 705 W/m² | - |
| 1777926299 | 23.33° C | 61% | 1010.3 hPa | 0 mm | - | 625 W/m² | - |
| 1777925996 | 22.78° C | 59% | 1010 hPa | 0 mm | - | 651 W/m² | - |
| 1777925693 | 22.22° C | 61% | 1009.8 hPa | 0 mm | - | 698 W/m² | - |
| 1777925390 | 22.78° C | 63% | 1009.9 hPa | 0 mm | - | 783 W/m² | - |
| 1777925087 | 22.22° C | 64% | 1009.9 hPa | 0 mm | - | 803 W/m² | - |
| 1777924784 | 21.67° C | 66% | 1010.2 hPa | 0 mm | - | 795 W/m² | - |
| 1777924479 | 21.67° C | 66% | 1010.2 hPa | 0 mm | - | 776 W/m² | - |
| 1777924176 | 21.67° C | 66% | 1010.3 hPa | 0 mm | - | 794 W/m² | - |
| 1777923872 | 21.67° C | 66% | 1010.1 hPa | 0 mm | - | 743 W/m² | - |
| 1777923568 | 21.67° C | 66% | 1010.4 hPa | 0 mm | - | 833 W/m² | - |
| 1777923266 | 21.11° C | 67% | 1010.1 hPa | 0 mm | - | 843 W/m² | - |
| 1777922965 | 21.11° C | 66% | 1010.3 hPa | 0 mm | - | 726 W/m² | - |
| 1777922661 | 21.11° C | 65% | 1010.2 hPa | 0 mm | - | 818 W/m² | - |
| 1777922360 | 22.22° C | 65% | 1010.2 hPa | 0 mm | - | 790 W/m² | - |
| 1777922058 | 21.67° C | 66% | 1010.3 hPa | 0 mm | - | 832 W/m² | - |
| 1777921753 | 21.11° C | 67% | 1010 hPa | 0 mm | - | 781 W/m² | - |
* Rain latest hour (hover to see other rain measurements)
** Current wind speed in m/s (hover to see current wind gust speed)